Stations météo

Publicité
Cap Bear, France (7749): Température de l'air & dewpoint: 14.09.2018 06:00:00 - 20.09.2018 06:00:00 (CEST)Cap Bear, France (7749): Vitesse du vent & gusts: 14.09.2018 06:00:00 - 20.09.2018 06:00:00 (CEST)Cap Bear, France (7749): Direction du vent: 14.09.2018 06:00:00 - 20.09.2018 06:00:00 (CEST)Cap Bear, France (7749): reduced air pressure: 14.09.2018 06:00:00 - 20.09.2018 06:00:00 (CEST)Cap Bear, France (7749): visibility: 14.09.2018 06:00:00 - 20.09.2018 06:00:00 (CEST)Cap Bear, France (7749): Quantités de précipitations: 14.09.2018 06:00:00 - 20.09.2018 06:00:00 (CEST)
Date & Time tt [°C] td [°C] ff [km/h] ff [knt] fx [km/h] fx [knt] dd ppp [hPa] vv [km] rr [mm]
20.09.2018 06:00:00 24,7 14,5 16 8 27 15 WNW 1018,5 - 0,0
20.09.2018 05:00:00 25,1 14,2 20 11 30 16 WNW 1018,6 18 0,0
20.09.2018 04:00:00 25,0 14,5 16 9 23 13 WNW 1018,9 - 0,0
20.09.2018 03:00:00 23,2 16,5 11 6 18 10 WNW 1019,4 - 0,0
20.09.2018 02:00:00 23,6 16,6 5 3 12 6 N 1019,8 - 0,0
20.09.2018 01:00:00 22,6 17,1 8 4 19 10 S 1019,9 - 0,0
20.09.2018 00:00:00 23,0 17,0 6 3 16 9 W 1020,2 - 0,0
19.09.2018 23:00:00 22,9 17,1 15 8 20 11 WNW 1020,1 - 0,0
19.09.2018 22:00:00 23,0 17,7 5 3 10 5 WNW 1020,0 - 0,0
19.09.2018 21:00:00 22,0 18,6 8 4 22 12 S 1019,7 - 0,0
19.09.2018 20:00:00 22,0 19,2 17 9 25 13 SSE 1019,3 18 0,0
19.09.2018 19:00:00 22,6 18,2 12 7 15 8 S 1019,4 - 0,0
19.09.2018 18:00:00 22,9 19,7 12 6 15 8 SSE 1019,2 - 0,0
19.09.2018 17:00:00 22,6 19,9 9 5 17 9 SSE 1019,4 18 0,0
19.09.2018 16:00:00 23,0 20,3 9 5 14 8 S 1019,8 - 0,0
19.09.2018 15:00:00 23,8 20,1 9 5 23 13 ENE 1020,2 - 0,0
19.09.2018 14:00:00 23,9 20,2 10 5 17 9 E 1020,6 18 0,0
19.09.2018 13:00:00 24,7 20,8 13 7 23 13 NE 1020,8 - 0,0
19.09.2018 12:00:00 25,2 20,9 14 8 21 11 NNE 1021,1 - 0,0
19.09.2018 11:00:00 22,7 20,2 16 9 21 11 NNW 1021,4 15 0,0
19.09.2018 10:00:00 21,8 20,1 19 10 24 13 NW 1021,0 - 0,0
19.09.2018 09:00:00 20,6 19,3 17 9 23 12 NW 1020,6 - 0,0
19.09.2018 08:00:00 20,8 20,1 14 8 19 10 NNW 1020,0 - 0,0
19.09.2018 07:00:00 20,6 19,9 12 6 26 14 NNW 1019,4 - 0,0
19.09.2018 06:00:00 20,2 19,4 23 12 26 14 NW 1019,1 - 0,0
19.09.2018 05:00:00 20,4 20,1 19 10 24 13 NNW 1019,0 8 0,0
19.09.2018 04:00:00 19,8 19,0 18 10 23 13 NW 1018,8 - 0,0
19.09.2018 03:00:00 19,5 18,7 18 10 25 14 NW 1019,1 - 0,0
19.09.2018 02:00:00 20,6 20,4 18 10 23 12 NW 1019,2 - 0,2
19.09.2018 01:00:00 20,7 20,4 15 8 18 10 NW 1019,3 - 0,0
19.09.2018 00:00:00 21,0 20,7 5 3 13 7 N 1019,4 - 0,0
18.09.2018 23:00:00 21,3 20,8 5 3 7 4 NW 1019,2 - 0,0
18.09.2018 22:00:00 21,5 21,0 0 0 5 3 N 1018,7 - 0,0
18.09.2018 21:00:00 21,6 21,3 4 2 14 8 NNE 1017,5 - 0,0
18.09.2018 20:00:00 21,8 21,3 9 5 14 8 ENE 1017,1 0,2 0,0
18.09.2018 19:00:00 22,2 21,2 9 5 14 8 ESE 1017,3 - 0,0
18.09.2018 18:00:00 22,4 21,2 10 5 16 9 E 1017,4 - 0,0
18.09.2018 17:00:00 22,7 21,2 9 5 17 9 ESE 1017,4 10 0,0
18.09.2018 16:00:00 23,3 21,2 8 4 16 8 ENE 1017,4 - 0,0
18.09.2018 15:00:00 24,1 20,8 10 6 15 8 SE 1018,0 - 0,0
18.09.2018 14:00:00 24,6 21,1 10 5 21 11 SE 1018,3 20 0,0
18.09.2018 13:00:00 24,2 21,3 12 7 22 12 SE 1018,4 - 0,0
18.09.2018 12:00:00 23,9 20,8 9 5 18 10 ESE 1018,2 - 0,0
18.09.2018 11:00:00 23,4 20,3 8 5 16 8 ESE 1018,2 - 0,0
18.09.2018 10:00:00 22,9 20,2 13 7 16 9 SE 1018,1 - 0,0
18.09.2018 09:00:00 21,8 18,6 12 7 14 8 S 1018,0 - 0,0
18.09.2018 08:00:00 20,1 18,6 10 5 22 12 S 1017,6 5 0,0
18.09.2018 07:00:00 20,3 19,1 18 10 23 12 S 1017,1 - 0,0
18.09.2018 06:00:00 20,5 18,6 13 7 20 11 S 1016,9 - 0,0
18.09.2018 05:00:00 20,5 18,1 14 7 30 16 S 1017,0 18 0,0
18.09.2018 04:00:00 21,0 19,3 17 9 22 12 SSE 1017,1 - 0,0
18.09.2018 03:00:00 20,3 18,4 16 8 27 15 S 1017,5 - 0,0
18.09.2018 02:00:00 21,0 19,6 27 14 29 16 S 1017,6 - 0,0
18.09.2018 01:00:00 21,5 19,1 20 11 27 15 S 1017,7 - 0,0
18.09.2018 00:00:00 21,7 19,1 23 13 34 18 S 1017,7 - 0,0
17.09.2018 23:00:00 21,8 19,4 28 15 37 20 S 1017,7 - 0,0
17.09.2018 22:00:00 21,4 19,7 29 16 40 22 S 1017,5 - 0,0
17.09.2018 21:00:00 21,4 20,2 35 19 43 23 SSE 1017,1 - 0,0
17.09.2018 20:00:00 21,6 20,1 37 20 48 26 SSE 1016,8 - 0,0
17.09.2018 19:00:00 21,6 20,6 38 20 42 23 SSE 1017,0 - 0,0
17.09.2018 18:00:00 22,1 20,6 34 19 39 21 SSE 1017,4 - 0,0
17.09.2018 17:00:00 22,7 20,4 34 18 41 22 SSE 1018,1 18 0,0
17.09.2018 16:00:00 22,8 20,7 34 19 37 20 SE 1018,6 - 0,0
17.09.2018 15:00:00 23,1 20,2 32 18 35 19 SE 1019,5 - 0,0
17.09.2018 14:00:00 23,6 21,3 26 14 32 17 SSE 1020,0 18 0,0
17.09.2018 13:00:00 22,6 20,7 22 12 35 19 SE 1020,3 - 0,0
17.09.2018 12:00:00 22,7 19,9 9 5 17 9 ESE 1020,6 - 0,0
17.09.2018 11:00:00 21,3 19,4 0 0 5 3 N 1020,7 8 0,0
17.09.2018 10:00:00 20,8 19,5 3 2 6 4 NNW 1020,9 - 0,0
17.09.2018 09:00:00 20,5 19,3 4 2 13 7 NNW 1020,5 - 0,0
17.09.2018 08:00:00 20,4 19,4 10 6 13 7 N 1020,3 - 0,0
17.09.2018 07:00:00 20,5 19,3 4 2 6 4 SW 1020,3 - 0,0
17.09.2018 06:00:00 20,4 19,4 7 4 14 7 NW 1020,1 - 0,0
17.09.2018 05:00:00 20,2 19,2 10 6 18 10 NW 1019,8 18 0,0
17.09.2018 04:00:00 20,3 19,5 15 8 18 10 NW 1020,1 - 0,0
17.09.2018 03:00:00 20,4 19,6 12 6 16 9 NW 1020,4 - 0,0
17.09.2018 02:00:00 20,7 20,0 14 8 17 9 NW 1020,8 - 0,0
17.09.2018 01:00:00 20,8 20,3 11 6 20 11 NNW 1020,9 - 0,0
17.09.2018 00:00:00 21,0 20,5 14 8 22 12 NW 1020,7 - 0,0
16.09.2018 23:00:00 21,1 20,4 16 8 23 12 NW 1020,9 - 0,0
16.09.2018 22:00:00 21,5 20,7 15 8 20 11 WNW 1021,0 - 0,0
16.09.2018 21:00:00 21,6 20,6 15 8 24 13 WNW 1020,8 - 0,0
16.09.2018 20:00:00 23,0 20,7 10 5 29 16 SSW 1020,1 10 0,0
16.09.2018 19:00:00 22,2 20,7 27 15 33 18 SSE 1019,7 - 0,0
16.09.2018 18:00:00 23,2 20,7 18 10 24 13 SSE 1019,4 - 0,0
16.09.2018 17:00:00 23,4 19,8 8 4 18 10 ESE 1019,8 - 0,0
16.09.2018 16:00:00 23,5 19,2 7 4 13 7 E 1019,9 - 0,0
16.09.2018 15:00:00 24,9 20,4 5 3 13 7 NNE 1020,3 - 0,0
16.09.2018 14:00:00 23,3 20,1 12 6 22 12 NNE 1020,6 22 0,0
16.09.2018 13:00:00 23,6 18,9 20 11 23 12 N 1020,6 - 0,0
16.09.2018 12:00:00 22,6 19,8 13 7 18 10 NNW 1020,8 - 0,0
16.09.2018 11:00:00 22,3 17,9 16 9 23 12 NW 1020,8 22 0,0
16.09.2018 10:00:00 21,5 17,1 14 7 23 12 NW 1020,7 - 0,0
16.09.2018 09:00:00 20,3 15,9 18 10 23 12 WNW 1020,5 - 0,0
16.09.2018 08:00:00 20,6 16,0 8 4 12 7 NNW 1020,1 20 0,0
16.09.2018 07:00:00 21,2 15,1 4 2 6 4 ESE 1019,8 - 0,0
16.09.2018 06:00:00 22,0 14,1 4 2 8 4 S 1019,7 - 0,0
16.09.2018 05:00:00 22,2 14,6 6 3 8 4 SSE 1019,3 20 0,0
16.09.2018 04:00:00 22,3 14,4 3 2 4 2 NE 1019,5 - 0,0
16.09.2018 03:00:00 22,4 14,0 3 2 7 4 NNE 1019,9 - 0,0
16.09.2018 02:00:00 22,6 13,6 3 1 6 3 NE 1020,7 - 0,0
16.09.2018 01:00:00 22,2 14,6 6 4 8 5 S 1020,9 - 0,0
16.09.2018 00:00:00 22,6 14,4 6 3 9 5 S 1020,9 - 0,0
15.09.2018 23:00:00 22,7 14,5 8 4 27 15 NNW 1020,3 - 0,0
15.09.2018 22:00:00 23,5 15,0 23 13 26 14 NW 1019,8 - 0,0
15.09.2018 21:00:00 22,8 14,9 11 6 45 24 S 1019,8 - 0,0
15.09.2018 20:00:00 23,3 13,7 34 18 41 22 S 1019,5 - 0,0
15.09.2018 19:00:00 21,9 17,3 25 13 39 21 S 1020,0 - 0,0
15.09.2018 18:00:00 21,9 17,1 28 15 33 18 SSE 1020,2 - 0,0
15.09.2018 17:00:00 22,6 17,1 25 13 27 15 SSE 1020,2 20 0,0
15.09.2018 16:00:00 23,6 15,6 13 7 16 9 S 1020,2 - 0,0
15.09.2018 15:00:00 24,3 15,0 6 4 25 14 E 1020,5 - 0,0
15.09.2018 14:00:00 25,6 16,2 25 14 27 15 NNE 1020,4 20 0,0
15.09.2018 13:00:00 24,9 17,1 19 11 31 17 N 1020,6 - 0,0
15.09.2018 12:00:00 24,4 14,5 25 13 38 20 NW 1021,4 - 0,0
15.09.2018 11:00:00 23,4 13,0 29 16 46 25 NW 1021,5 20 0,0
15.09.2018 10:00:00 23,0 13,2 25 14 37 20 NW 1021,4 - 0,0
15.09.2018 09:00:00 22,3 13,4 24 13 42 23 NW 1021,3 - 0,0
15.09.2018 08:00:00 21,9 13,3 24 13 40 21 NW 1021,0 20 0,0
15.09.2018 07:00:00 21,7 13,3 33 18 46 25 WNW 1020,3 - 0,0
15.09.2018 06:00:00 21,7 13,6 31 17 48 26 NW 1019,8 - 0,0
15.09.2018 05:00:00 22,1 13,7 32 17 52 28 NW 1020,1 - 0,0
15.09.2018 04:00:00 22,1 13,4 34 18 48 26 NW 1020,1 - 0,0
15.09.2018 03:00:00 22,1 13,4 29 15 46 25 NW 1020,1 - 0,0
15.09.2018 02:00:00 22,1 13,7 30 16 53 29 WNW 1020,2 - 0,0
15.09.2018 01:00:00 22,3 13,6 33 18 59 32 NW 1019,9 - 0,0
15.09.2018 00:00:00 22,8 14,1 41 22 66 36 NW 1019,3 - 0,0
14.09.2018 23:00:00 23,0 13,7 41 22 71 38 NW 1019,1 - 0,0
14.09.2018 22:00:00 23,4 14,1 36 20 58 32 WNW 1019,2 - 0,0
14.09.2018 21:00:00 23,5 13,9 32 17 52 28 WNW 1019,1 - 0,0
14.09.2018 20:00:00 23,9 14,3 34 18 56 30 WNW 1018,7 20 0,0
14.09.2018 19:00:00 24,5 14,6 38 20 58 31 NW 1018,4 - 0,0
14.09.2018 18:00:00 24,6 16,1 42 23 48 26 NW 1018,2 - 0,0
14.09.2018 17:00:00 25,0 16,4 42 23 48 26 NNW 1017,8 20 0,0
14.09.2018 16:00:00 24,7 16,9 35 19 41 22 N 1017,7 - 0,0
14.09.2018 15:00:00 25,0 17,2 31 17 38 20 N 1017,9 - 0,0
14.09.2018 14:00:00 25,2 17,4 25 13 41 22 NNW 1018,3 - 0,0
14.09.2018 13:00:00 24,6 16,1 35 19 47 26 NNW 1018,5 - 0,0
14.09.2018 12:00:00 24,7 15,3 30 16 48 26 NW 1018,9 - 0,0
14.09.2018 11:00:00 23,6 15,1 30 16 54 29 NW 1019,0 20 0,0
14.09.2018 10:00:00 22,6 14,7 29 16 54 29 NW 1018,7 - 0,0
14.09.2018 09:00:00 21,6 14,5 37 20 55 30 NW 1018,1 - 0,0
14.09.2018 08:00:00 20,9 14,3 30 16 56 31 NW 1018,2 20 0,0
14.09.2018 07:00:00 20,9 14,3 38 21 67 36 NW 1017,7 - 0,0
14.09.2018 06:00:00 21,2 14,4 48 26 63 34 NW 1017,2 - 0,0

tt = Température de l'air
td = dewpoint
ff = Vitesse du vent
fx = gusts
dd = Direction du vent
ppp = reduced air pressure
vv = visibility
rr = Quantités de précipitations

stations d'obs. à proximité